Flag for Canada Weather past 2 weeks in Hopedale, Newfoundland and Labrador, Canada

Now
20 °F

Cold.


Feels Like: 20 °F
Forecast: 8 / 28 °F
Wind: 2 mph from South

Location: Hopedale


UV Index: 3 (Moderate)

Visibility: N/A


Pressure: 29.93 "Hg

Humidity: 65%

Dew point: 11 °F

Location of HopedaleLocation

Historic Weather in Hopedale

°F

Hopedale temperature yesterday

Maximum temperature yesterday: 25 °F (at 3:00 PM)
Minimum temperature yesterday: 17 °F (at 11:00 PM)
Average temperature yesterday: 21 °F

Past Weeks' High & Low Weather Summary

 TemperatureHumidityPressure
High41 °F (Apr 11, 12:00 PM)100% (Apr 7, 1:00 AM)30.44 "Hg (Apr 7, 1:00 AM)
Low0 °F (Apr 14, 5:00 AM)38% (Apr 19, 3:00 PM)28.88 "Hg (Apr 9, 3:00 PM)
Average22 °F73%29.82 "Hg
* Reported Apr 6 10:00 AM — Apr 21 10:00 AM, Hopedale, Weather by CustomWeather, © 2014

Note: Actual official high and low records may vary slightly from our data, if they occured in-between our weather recording intervals... More about our weather records

Advertising

Historic Weather Conditions — Data for Previous 24 hours

 ConditionsComfort  
Time TempWeatherWind HumidityBarometerVisibility
10:00 AM
Apr 21
20 °FCold.2 mph65%29.93 "HgN/A
9:00 AM20 °FCold.3 mph62%29.94 "HgN/A
8:00 AM15 °FCold.6 mph73%29.95 "HgN/A
7:00 AM7 °FFrigid.5 mph75%29.96 "HgN/A
6:00 AM9 °FFrigid.5 mph84%29.97 "HgN/A
5:00 AM13 °FCold.5 mph81%29.97 "HgN/A
4:00 AM10 °FCold.5 mph84%29.98 "HgN/A
3:00 AM10 °FCold.2 mph86%30.00 "HgN/A
2:00 AM13 °FCold.3 mph80%30.02 "HgN/A
1:00 AM15 °FCold.6 mph86%30.03 "HgN/A
12:00 AM18 °FCold.5 mph79%30.05 "HgN/A
11:00 PM
Apr 20
17 °FCold.7 mph76%30.07 "HgN/A
10:00 PM18 °FCold.5 mph79%30.08 "HgN/A
9:00 PM19 °FCold.No wind73%30.09 "HgN/A
8:00 PM20 °FCold.1 mph71%30.09 "HgN/A
7:00 PM24 °FCold.2 mph59%30.09 "HgN/A
6:00 PM25 °FCold.3 mph60%30.09 "HgN/A
5:00 PM25 °FChilly.5 mph55%30.10 "HgN/A
4:00 PM25 °FChilly.6 mph57%30.11 "HgN/A
3:00 PM25 °FChilly.8 mph57%30.11 "HgN/A
2:00 PM24 °FCold.12 mph55%30.12 "HgN/A
1:00 PM24 °FCold.14 mph58%30.12 "HgN/A
12:00 PM23 °FCold.14 mph58%30.13 "HgN/A
11:00 AM21 °FCold.15 mph58%30.13 "HgN/A
Weather by CustomWeather, © 2014

See weather overview